Location: Toronto
(43.6672°N, 79.4170°W)
Time: 13:29:47
(UTC-05:00)

Daily predictions for brighter satellites

Satellite Brightness Start Highest point End
(mag) Time Altitude Azimuth Time Altitude Azimuth Time Altitude Azimuth
Cosmos 44 4.2 17:09:55 10° NNW 17:13:54 27° NE 17:18:02 10° ESE
AQUARIUS 4.4 17:16:17 10° SE 17:20:35 47° ENE 17:24:54 10° N
MSX 4.1 17:15:14 10° S 17:20:59 77° WSW 17:26:48 10° NNW
Cosmos 1844 4.3 17:16:10 10° SW 17:21:52 60° WNW 17:27:38 10° NNE
CORIOLIS 4.4 17:18:08 10° SE 17:23:20 49° ENE 17:28:33 10° N
Cosmos 2278 Rocket 2.2 17:19:36 10° SSW 17:25:15 75° ESE 17:30:57 10° NNE
Cosmos 1782 Rocket 4.3 17:24:38 10° NNE 17:28:31 31° ENE 17:32:24 10° SE
Cosmos 1814 Rocket 4.3 17:23:46 10° NNW 17:29:08 75° WSW 17:34:28 10° SSE
Cosmos 540 Rocket 3.9 17:24:23 10° N 17:29:17 40° ENE 17:34:08 10° SE
Meteor 1-14 Rocket 4.2 17:24:22 10° N 17:30:03 72° ENE 17:35:35 10° SSE
ALOS 3.5 17:29:54 10° ESE 17:33:13 20° ENE 17:36:32 10° NNE
SL-27 R/B 2.3 17:31:18 10° NNW 17:34:37 61° ENE 17:37:56 10° SSE
Cosmos 1437 3.7 17:32:05 10° SSW 17:35:09 49° WNW 17:38:16 10° N
Cosmos 1725 Rocket 4.5 17:29:32 10° SSW 17:35:46 67° W 17:42:01 10° N
COSMO-SKYMED 1 3.8 17:32:54 10° NE 17:36:21 23° E 17:39:47 10° SSE
YAOGAN 1 3.1 17:32:44 10° SE 17:36:43 37° ENE 17:40:43 10° N
CZ-4C R/B 3.4 17:31:26 10° NNW 17:37:50 37° NE 17:44:57 10° ESE
Meteor 1-28 Rocket 3.5 17:34:29 10° NNE 17:38:03 44° E 17:41:36 10° S
USA 161 3.7 17:36:47 10° NNW 17:38:16 18° WNW 17:39:50 10° WSW
SMAP 3.0 17:34:45 10° SSE 17:39:23 76° ENE 17:44:03 10° N
Meteor 1-26 Rocket 4.3 17:37:22 10° SSW 17:42:56 79° W 17:48:29 10° N
COSMOS 2487 4.2 17:41:09 10° NNE 17:42:52 14° NE 17:42:52 14° NE
Cosmos 1503 Rocket 4.4 17:38:20 10° S 17:43:19 45° ESE 17:48:16 10° NNE
Ariane Rocket 3.0 17:38:58 10° SSE 17:44:04 88° W 17:49:11 10° NNW
Cosmos 841 Rocket 3.7 17:40:44 10° NNW 17:46:02 79° WSW 17:51:16 10° SSE
Cosmos 1606 2.9 17:43:04 10° SSE 17:46:43 48° E 17:50:22 10° NNE
Landsat 4 4.1 17:47:22 10° NNE 17:51:01 43° E 17:54:39 10° S
IRS-1A Rocket 4.3 17:45:20 10° SSE 17:51:05 68° ENE 17:56:44 10° N
Cosmos 836 Rocket 4.5 17:47:14 10° NNW 17:52:27 62° ENE 17:57:39 10° SSE
METEOR-M 4.3 17:48:44 10° SE 17:53:53 51° ENE 17:59:03 10° N
CSL-04 Rocket 4.2 17:51:40 10° S 17:56:53 62° WSW 18:02:13 10° NNW
Cosmos 1703 Rocket 3.5 17:53:18 10° S 17:57:45 78° E 18:02:13 10° N
Cosmos 1484 Rocket 3.4 17:55:01 10° S 17:58:51 61° W 18:02:46 10° NNW
EO 1 Del DPAF 3.9 17:57:04 15° NE 17:59:46 34° E 18:03:15 10° SSE
Cosmos 2221 Rocket 3.7 17:57:29 10° S 18:01:45 53° E 18:06:04 10° NNE
Cosmos 2034 Rocket 4.3 17:58:06 10° SSE 18:04:01 43° E 18:09:57 10° NNE
Cosmos 2082 Rocket 2.1 17:58:23 10° NNW 18:04:07 80° ENE 18:09:46 10° SSE
Cosmos 1486 Rocket 4.4 17:58:59 10° SSW 18:04:09 64° WNW 18:09:24 10° NNE
ERS-2 2.1 18:04:29 10° SSE 18:08:07 62° ENE 18:11:46 10° N
CENTAUR R/B 4.0 18:02:40 10° W 18:08:18 32° NW 18:14:39 10° NNE
CZ-4 R/B 1.7 18:06:30 10° S 18:10:19 64° WSW 18:14:09 10° NNW
MOS 1 4.3 18:04:48 10° SSE 18:10:25 65° ENE 18:16:05 10° N
Timation 2 Rocket 4.4 18:04:33 10° NNW 18:11:01 44° NE 18:17:13 10° SE
COSMOS 2455 4.2 18:06:20 10° WSW 18:11:48 36° NW 18:17:20 10° NNE
Meteor 2-6 Rocket 4.1 18:08:39 10° S 18:14:02 68° E 18:19:38 10° NNE
Cosmos 1602 3.8 18:11:59 10° N 18:15:45 52° E 18:19:30 10° SSE
Okean 2 Rocket 3.0 18:11:59 10° N 18:16:31 65° E 18:21:00 10° SSE
Cosmos 1633 3.2 18:15:30 10° NNW 18:19:07 59° W 18:22:43 10° S
Cosmos 1354 Rocket 4.0 18:17:51 10° SSW 18:23:08 83° WNW 18:28:19 11° NNE
Cosmos 405 Rocket 2.5 18:19:41 10° S 18:23:25 64° E 18:25:14 28° NNE
SKYMED 2 3.4 18:20:16 10° NNE 18:24:36 74° E 18:28:56 10° S
CZ-2C R/B 4.3 18:23:43 10° N 18:28:08 58° WNW 18:32:36 10° SSW
Cosmos 1782 3.6 18:25:15 10° SSW 18:29:10 52° W 18:33:06 10° N
BREEZE-M R/B 4.1 18:27:53 10° W 18:30:31 32° SSW 18:34:43 10° SSE
Cosmos 1464 Rocket 3.9 18:24:34 10° S 18:30:42 89° W 18:36:55 10° N
BREEZE-M DEB (TANK) 2.0 18:30:06 10° WNW 18:32:12 71° NNE 18:32:12 71° NNE
SPOT 3 Rocket 3.4 18:28:12 10° SSE 18:33:25 81° ENE 18:38:38 10° NNW
Cosmos 44 Rocket 3.4 18:30:59 10° NW 18:35:52 77° WSW 18:40:50 10° SSE
FENGYUN 3A 3.5 18:33:25 10° SSE 18:38:49 78° ENE 18:44:14 10° N
Cosmos 292 Rocket 3.9 18:35:01 10° NNW 18:39:46 75° WSW 18:44:30 10° SSE
Cosmos 1538 Rocket 4.5 18:36:19 10° N 18:40:58 39° NE 18:40:58 39° NE
Okean 1-7 3.9 18:37:42 10° SSW 18:41:57 50° WNW 18:46:16 10° N
Meteor 2-20 Rocket 4.3 18:36:51 10° N 18:42:55 66° E 18:48:57 10° SSE
Meteor 1-5 Rocket 4.1 18:38:06 10° N 18:43:19 51° ENE 18:48:28 10° SSE
Meteor 1-27 Rocket 3.7 18:43:40 10° S 18:49:35 86° E 18:55:34 10° N
Cosmos 44 4.3 18:50:46 10° NW 18:55:16 46° WSW 19:00:00 10° S
Cosmos 1833 Rocket 4.0 18:50:12 10° NW 18:55:24 39° WSW 19:00:35 10° S
Lacrosse 5 3.6 18:52:51 10° NW 18:56:21 18° N 18:56:22 18° N
Cosmos 2369 Rocket 3.6 18:55:11 10° SSE 18:57:34 23° SSE 18:57:34 23° SSE
Thor Agena Rocket 4.2 19:04:54 38° SSE 19:04:54 38° SSE 19:08:16 10° S
Cosmos 2278 Rocket 4.4 19:05:50 10° W 19:09:59 20° NW 19:14:07 10° N
ALOS 3.1 19:05:46 10° S 19:10:17 49° W 19:14:50 10° NNW
COSMO-SKYMED 1 4.1 19:08:54 11° N 19:12:35 34° WNW 19:16:30 10° SW
USA 234 3.1 19:14:26 59° ENE 19:15:46 78° SE 19:22:19 10° SW
Cosmos 968 Rocket 3.8 19:14:26 10° SSW 19:19:34 64° WNW 19:20:41 50° NNW
CZ-4C R/B 3.2 19:19:45 10° NW 19:26:54 65° WSW 19:32:49 19° SSE
USA 229 DEB 4.2 20:04:47 10° SW 20:10:13 54° W 20:10:13 54° W
USA 229 4.2 20:04:53 10° SW 20:10:16 53° W 20:10:16 53° W
